User: anonymous   Login
Location: Unspecified
(0.0000°N, 0.0000°E)
Time: 05:17:17
(UTC+00:00)
Language:

GRIFEX - Orbit

View from above orbital plane
View from above orbital plane
View from above satellite
View from above satellite

Ground track
Ground track

The orbit data is extracted from the following two-line orbital elements,

1 40379U 15003D   19083.82230323  .00002210  00000-0  97687-4 0  9992
2 40379  99.1037  41.2225 0136822  33.8265 327.1597 15.15183322228589
Epoch (UTC): 24 March 2019 19:44:06
Eccentricity: 0.0136822
inclination: 99.1037°
perigee height: 426 km
apogee height: 615 km
right ascension of ascending node: 41.2225°
argument of perigee: 33.8265°
revolutions per day: 15.15183322
mean anomaly at epoch: 327.1597°
orbit number at epoch: 22858

The dashed part of the orbit path shows where the satellite is in the earth's shadow,  

DLR